Regional Weather Roundup
Issued by NWS Grand Forks, ND

Home | Current Version | Previous Version | Graphics & Text | Print | Product List | Glossary On
Versions: 1 2 3 4 5 6 7 8 9 10 11 12 13 14 15 16 17 18 19 20 21 22 23 24 25 26 27 28 29 30 31 32 33 34 35 36 37 38 39 40 41 42 43 44 45 46 47 48 49 50
000
ASUS43 KFGF 151631
RWRFGF
PRAIRIE TO PINES  WEATHER ROUNDUP
NATIONAL WEATHER SERVICE EASTERN NORTH DAKOTA/GRAND FORKS ND
1000 AM CST SUN JAN 15 2017

 **SATELLITE DATA USED TO AUGMENT SKY COVER AT AUTOMATED STATIONS**
 *****  WEATHER ACROSS EASTERN NORTH DAKOTA  *****

CITY           SKY/WX    TMP DP  RH WIND       PRES   REMARKS
GRAND FORKS    FAIR       3  -3  76 S9        30.12S WCI -12
GRAND FRKS AFB FAIR      11   1  63 SW10      30.10F WCI  -2
DEVILS LAKE    FAIR       9   1  70 SW6       30.07S WCI  -1
FARGO          FAIR      10   3  73 S13       30.18F WCI  -5
WAHPETON ARPT  FAIR       9   1  72 SE8       30.23S WCI  -4
$$

 ***** WEATHER ACROSS CENTRAL AND WESTERN NORTH DAKOTA  *****

CITY           SKY/WX    TMP DP  RH WIND       PRES   REMARKS
BISMARCK       FAIR      -6 -12  75 CALM      30.15R
MINOT          FAIR      17   5  59 SW20      30.03S WCI   1
JAMESTOWN      FAIR      10   3  73 SW7       30.11S WCI  -1
MINOT AFB      FAIR      15   5  63 SW15      30.02S WCI   0
GARRISON         N/A      2  -1  88 CALM      30.07S
WILLISTON      FAIR       6  -1  73 CALM      30.06F
DICKINSON      FAIR      18   4  54 W14       30.05F WCI   4
HETTINGER      FAIR       7   2  80 W5        30.11F WCI  -2
$$

 *****  OTHER AIRPORT OBSERVATIONS IN OUR AREA  *****

CITY           SKY/WX    TMP DP  RH WIND       PRES   REMARKS
WALHALLA       NOT AVBL
GRAFTON AIRPOR FAIR       3  -2  78 S12       30.12S WCI -13
VALLEY CITY AR FAIR       9   5  85 SW12      30.15S WCI  -6
CANDO          NOT AVBL
CAVALIER APRT    N/A     14   3  62 SW8       30.06F WCI   3
GWINNER        FAIR      14  10  85 S22       30.18R WCI  -4
SHEYENNE NWR     N/A     16   8  70 SW9       29.95S WCI   4
ROLLA            N/A    N/A N/A N/A MISG        N/A
 ***** THE ABOVE OBSERVATIONS ARE NON NWS ARE NOT QUALITY
       CONTROLLED AND MAY MIS-REPORT RAIN FOR SNOW...
$$

  *****  WEATHER ACROSS NORTHERN MINNESOTA  *****

CITY           SKY/WX    TMP DP  RH WIND       PRES   REMARKS
FLAG ISLAND    FAIR       3   0  85 S10       30.02F WCI -12
WARROAD        FAIR      10   3  72 SW14G22   30.05S WCI  -5
ROSEAU         FAIR       9   3  78 S13       30.05F WCI  -7
HALLOCK        FAIR       3  -2  78 S15       30.09R WCI -15
THF RVR FALLS  FAIR      10   4  76 SW16      30.12S WCI  -7
BAUDETTE       FAIR      11   3  70 SW9       30.05F WCI  -2
WASKISH        FAIR      16   7  67 W5        30.12S WCI   9
CROOKSTON      FAIR       9   3  78 S15       30.15F WCI  -8
STEPHEN NDAWN    N/A      3   0  85 S13         N/A  WCI -14
GREENBUSH NDAW   N/A      7   3  85 S14         N/A  WCI -10
$$
  *****  WEATHER ACROSS CENTRAL AND WEST MINNESOTA  *****

CITY           SKY/WX    TMP DP  RH WIND       PRES   REMARKS
FOSSTON        FAIR      12   7  79 SW15      30.14S WCI  -4
BEMIDJI        FAIR      19   9  64 SW7       30.12R WCI  10
PARK RAPIDS    FAIR       8   2  76 S10       30.16F WCI  -6
ELBOW LAKE     FAIR      10   5  79 S12       30.24R HAZE    WCI  -4
WADENA         FAIR       3   0  85 CALM      30.20S
DETROIT LAKES  FAIR      18  10  73 S10       30.17F WCI   6
MOORHEAD       FAIR       7   0  72 S13       30.19F WCI  -9
FERGUS FALLS   FAIR      12   5  73 S13       30.28R WCI  -3
MORRIS MN      FAIR       9   5  85 S9        30.23S WCI  -5
STAPLES        FAIR      12   5  73 S5        30.21S WCI   4
$$
  *****  WEATHER ELSEWHERE ACROSS MINNESOTA  *****

CITY           SKY/WX    TMP DP  RH WIND       PRES   REMARKS
DULUTH         FAIR      16   7  67 SW15      30.19F WCI   1
INTRNTL FALLS  FAIR      13   5  70 SW8       30.09F WCI   2
ELY            FAIR      14   7  73 SW7       30.15F WCI   4
CLOQUET        FAIR      12   5  73 SW9G20    30.21S WCI   0
WHEATON        FAIR      18  12  79 SE6       30.25S WCI   9
BRAINERD       FAIR      11   6  81 SW12      30.22S WCI  -3
HIBBING        FAIR      -4  -7  87 CALM      30.18F
ALEXANDRIA     FAIR      14   6  70 SW12      30.22F WCI   0
SAINT CLOUD    FAIR       5   2  87 SE5       30.28F WCI  -4
MINNEAPOLIS    FAIR      11   6  81 VRB3      30.36R
$$

  *****  WEATHER ACROSS SOUTH DAKOTA  *****

CITY           SKY/WX    TMP DP  RH WIND       PRES   REMARKS
SIOUX FALLS    FAIR      13  10  88 S6        30.28F FOG     WCI   4
BROOKINGS      FAIR      13  10  88 SE10      30.26S WCI   0
WATERTOWN      FAIR      10   7  87 S10       30.22F WCI  -4
HURON          FAIR      13  10  88 S3        30.25F
SISSETON         N/A     26  19  74 SW15      30.19S WCI  14
ABERDEEN       FAIR       1  -4  79 S8        30.22F WCI -13
MITCHELL       FAIR      17  13  84 SE9       30.27F WCI   6
PIERRE         FAIR       4   0  83 SW6       30.20F WCI  -7
MOBRIDGE       FAIR      -1  -8  72 SE3       30.15F
RAPID CITY     FAIR      15   3  59 NW5       30.11F WCI   8
$$

  *****  SOME WEATHER IN NEARBY STATES *****

CITY           SKY/WX    TMP DP  RH WIND       PRES   REMARKS
GLASGOW MT     FAIR      -4  -9  79 SE6       30.04S WCI -16
GREAT FALLS MT FAIR      26   9  48 SW21      30.02R WCI  12
CHEYENNE WY    CLOUDY    26  19  74 W3        30.09R
SCOTTSBLUFF NE FAIR      22  18  85 CALM      30.14S
OMAHA NE       CLOUDY    32  15  49 S5        30.35S
DES MOINES IA  CLOUDY    30  18  60 SE7       30.38R WCI  23
DAVENPORT IA   PTSUNNY   26  12  55 E3        30.42S
CHICAGO IL     PTSUNNY   25  17  72 CALM      30.43R
EAU CLAIRE WI  FAIR       0  -2  91 CALM      30.38R FOG
LA CROSSE WI   FAIR      22   5  48 S6        30.42F WCI  14
$$

  *****  SOME NATIONAL WEATHER *****

CITY           SKY/WX    TMP DP  RH WIND       PRES   REMARKS
LA GUARDIA NY  FAIR      36  22  56 NW7       30.37F
RALEIGH NC     PTSUNNY   50  41  71 NE13      30.37R
ATLANTA GA     PTSUNNY   68  54  60 CALM      30.35R
NEW ORLEANS LA PTSUNNY   68  64  87 E12       30.28R
OKLAHOMA CITY  DRZL/FOG  34  33  96 NE7       30.22S VSB 3/4
ALBUQUERQUE NM CLOUDY    40  39  97 NW6       29.94S
SALT LAKE CITY CLOUDY    27  23  85 CALM      30.17R FOG
LOS ANGELES CA PTSUNNY   55  51  86 E7        30.05R
BOISE ID       LGT SNOW  10   8  92 N5        30.40S FOG     WCI   2
SEATTLE WA     FAIR      31  27  85 E5        30.28S
$$

*** WEATHER ACROSS MANITOBA...SASKATCHEWAN AND ONTARIO ***
                ***ONTARIO***

CITY           SKY/WX    TMP DP  RH WIND       PRES   REMARKS
GERALDTON      CLOUDY    16   9  73 SW13      30.06F WCI   2
THUNDER BAY    PTSUNNY    5   1  85 CALM      30.18F
SIOUX LOOKOUT  PTSUNNY   14   5  67 SW13G20   29.95F WCI   0
TORONTO        CLOUDY    30  19  64 NW6       30.41S WCI  24
BIG TROUT LK   CLOUDY    19  14  79 W10       29.67F WCI   8
PICKLE LAKE    PTSUNNY   16   9  73 SW12G20   29.82F WCI   3
DRYDEN         PTSUNNY   10   5  79 SW16G24   29.96F WCI  -7
KENORA         PTSUNNY    7   1  78 S16       29.97  WCI -11
$$
                *** MANITOBA***

CITY           SKY/WX    TMP DP  RH WIND       PRES   REMARKS
BRANDON        PTCLDY     3  -2  78 W14       29.97F WCI -15
DAUPHIN        CLEAR     28  14  54 W14       29.85F WCI  17
ISLAND LAKE    PTCLDY    18  12  79 SW9       29.67F WCI   6
PILOT MOUND      N/A      3  -2  78 SW7         N/A  WCI  -9
THE PAS        PTCLDY    19  10  68 SW7       29.65S WCI  10
THOMPSON       MOCLDY    12   9  85 SW5       29.56F WCI   4
WINNIPEG       MOSUNNY   10   1  67 S20       29.97F WCI  -8
LYNN LAKE      CLOUDY    19  18  93 SW8       29.46S WCI   9
CHURCHILL      FLURRIES   0  -4  85 S9        29.55F WCI -16
GILLAM         CLOUDY     9   5  85 S7        29.57F WCI  -3
$$
                ***SASKATCHEWAN***

CITY           SKY/WX    TMP DP  RH WIND       PRES   REMARKS
ESTEVAN        MOCLDY     5  -2  72 SW12      29.99S WCI -11
KINDERSLEY     MOCLDY    10   7  85 S9        29.84F WCI  -2
LLOYDMINSTER   MOCLDY    28  19  69 W12       29.78R WCI  18
PRINCE ALBERT  CLOUDY    23  14  68 SW7       29.76S WCI  15
REGINA         MOCLDY     9   1  72 SE8       29.92F WCI  -4
YORKTON        CLEAR     18  10  73 S9        29.85F WCI   6
N. BATTLEFORD  CLEAR     21  12  68 S6        29.83S WCI  14
LA RONGE       PTCLDY    34  23  64 W12G18    29.61R
SASKATOON      MOCLDY    18  10  73 SW13      29.85R WCI   4
SWIFT CURRENT  CLEAR     18  10  73 SW18      29.86F WCI   2
$$
NOTE: THESE ARE AUTOMATED STATIONS WITH LIMITED QUALITY CONTROL
      "FAIR" INDICATES FEW OR NO CLOUDS BELOW 12,000 FEET WITH NO
      SIGNIFICANT WEATHER AND/OR OBSTRUCTIONS TO VISIBILITY.
      SKY/WX - SKY CONDITION AND SIGNIFICANT WEATHER.
      TMP - AIR TEMPERATURE.    DP   - DEWPOINT TEMPERATURE.
      RH  - RELATIVE HUMIDITY.  PRES - PRESSURE.
      HX  - HEAT INDEX.         WCI  - WIND CHILL INDEX.
$




USA.gov is the U.S. government's official web portal to all federal, state and local government web resources and services.